Flag for Hungary Weather past 2 weeks in Győr, Hungary

Now
57 °F

Cool.


Feels Like: 57 °F
Forecast: 55 / 73 °F
Wind: No wind

Location: Gyor

Current Time: Sep 16, 2014 at 9:37:23 PM

Latest Report: Sep 16, 2014 at 9:00 PM


Visibility: N/A

Pressure: 30.11 "Hg

Humidity: 96%

Dew point: 56 °F

Location of GyőrLocation

Historic Weather in Győr — Graph

°F

Győr temperature yesterday

Maximum temperature yesterday: 70 °F (at 6:00 PM)
Minimum temperature yesterday: 55 °F (at 1:00 AM)
Average temperature yesterday: 61 °F

Past Weeks' High & Low Weather Summary

 TemperatureHumidityPressure
High80 °F (Sep 5, 5:00 PM)99% (Sep 15, 3:00 AM)30.11 "Hg (Sep 15, 3:00 AM)
Low55 °F (Sep 15, 1:00 AM)47% (Sep 5, 5:00 PM)29.78 "Hg (Sep 12, 5:00 AM)
Average64 °F86%29.98 "Hg
* Reported Sep 1 8:00 PM — Sep 16 8:00 PM, Győr, Weather by CustomWeather, © 2014

Note: Actual official high and low records may vary slightly from our data, if they occured in-between our weather recording intervals... More about our weather records

Advertising

Győr weather history for previous 24 hours

 ConditionsComfort  
Time TempWeatherWind HumidityBarometerVisibility
8:00 PM
Sep 16
59 °FCool.No wind94%30.10 "HgN/A
7:00 PM64 °FMild.No wind86%30.09 "HgN/A
6:00 PM67 °FMild.No wind79%30.08 "HgN/A
5:00 PM67 °FMild.1 mph71%30.09 "HgN/A
4:00 PM68 °FMild.1 mph70%30.09 "HgN/A
3:00 PM69 °FMild.2 mph73%30.09 "HgN/A
2:00 PM68 °FMild.1 mph71%30.10 "HgN/A
1:00 PM67 °FMild.1 mph76%30.11 "HgN/A
12:00 PM65 °FMild.1 mph77%30.11 "HgN/A
11:00 AM64 °FMild.1 mph81%30.11 "HgN/A
10:00 AM61 °FCool.No wind98%30.10 "HgN/A
9:00 AM59 °FCool.1 mph99%30.09 "HgN/A
8:00 AM56 °FCool.No wind99%30.09 "HgN/A
7:00 AM56 °FCool.No wind98%30.08 "HgN/A
6:00 AM55 °FCool.No wind98%30.07 "HgN/A
5:00 AM56 °FCool.No wind98%30.06 "HgN/A
4:00 AM56 °FCool.No wind98%30.07 "HgN/A
3:00 AM57 °FCool.No wind98%30.07 "HgN/A
2:00 AM58 °FCool.No wind97%30.06 "HgN/A
1:00 AM59 °FCool.No wind98%30.06 "HgN/A
12:00 AM59 °FCool.No wind97%30.06 "HgN/A
11:00 PM
Sep 15
60 °FCool.No wind97%30.06 "HgN/A
10:00 PM60 °FCool.No wind97%30.07 "HgN/A
9:00 PM59 °FCool.No wind96%30.06 "HgN/A
Weather by CustomWeather, © 2014

See weather overviewHow to use our weather pages